Charlotte, NC

12:14 PM EDT on May 22, 2018 (GMT -0400)
Charlotte-Douglas International

Weather History for KCLT - February, 2014

Change the Weather History Date:

Friday, February 28, 2014

  Actual Average Record
Temperature  
Mean Temperature 40 °F 47 °F  
Max Temperature 50 °F 58 °F 78 °F (1962)
Min Temperature 29 °F 36 °F 14 °F (2002)
Degree Days  
Heating Degree Days 25 18  
Month to date heating degree days 543 592  
Since 1 July heating degree days 2676 2699  
Cooling Degree Days 0 0  
Month to date cooling degree days 1 0  
Year to date cooling degree days 1 0  
Moisture  
Dew Point 12 °F    
Average Humidity 33    
Maximum Humidity 43    
Minimum Humidity 23    
Precipitation  
Precipitation 0.00 in 0.13 in 2.09 in (1987)
Month to date precipitation 4.01 3.32  
Year to date precipitation 6.92 6.73  
Snow  
Snow 0.00 in 0.00 in 5.00 in (1937)
Month to date snowfall 8.4 1.2  
Since 1 July snowfall 9.3 3.7  
Snow Depth 0.00 in    
Sea Level Pressure  
Sea Level Pressure 30.19 in    
Wind  
Wind Speed 9 mph (ENE)    
Max Wind Speed 15 mph    
Max Gust Speed 23 mph    
Visibility 10 miles    
Events      
T = Trace of Precipitation, MM = Missing Value Source: NWS Daily Summary

Daily Weather History Graph

Daily Weather History Graph

Search for Another Location

Airport or City:

Astronomy

Feb. 28, 2014 Rise Set
Actual Time 6:54 AM EST 6:18 PM EST
Civil Twilight 6:29 AM EST 6:43 PM EST
Nautical Twilight 5:59 AM EST 7:13 PM EST
Astronomical Twilight 5:30 AM EST 7:42 PM EST
Moon 6:07 AM EST (2/28) 5:53 PM EST (2/28)
Length of Visible Light 12h 14m
Length of Day
11h 23m
Waning Crescent, 1% of the Moon is Illuminated
Feb 28
Waning Crescent
Mar 1
New
Mar 8
First Quarter
Mar 16
Full
Mar 23
Last Quarter

Hourly Weather History & Observations

Time (EST) Temp. Windchill Dew Point Humidity Pressure Visibility Wind Dir Wind Speed Gust Speed Precip Events Conditions
12:52 AM 32.0 °F 26.4 °F 8.1 °F 37% 30.01 in 10.0 mi NNE 5.8 mph - N/A   Clear
1:52 AM 35.1 °F 27.9 °F 9.0 °F 34% 30.04 in 10.0 mi NE 9.2 mph - N/A   Clear
2:52 AM 34.0 °F 26.0 °F 8.1 °F 34% 30.05 in 10.0 mi NE 10.4 mph - N/A   Clear
3:52 AM 33.1 °F 23.9 °F 9.0 °F 37% 30.06 in 10.0 mi NE 12.7 mph - N/A   Clear
4:52 AM 30.9 °F 21.7 °F 9.0 °F 40% 30.10 in 10.0 mi ENE 11.5 mph - N/A   Clear
5:52 AM 30.0 °F 23.2 °F 9.0 °F 41% 30.14 in 10.0 mi ENE 6.9 mph - N/A   Clear
6:52 AM 30.0 °F 21.1 °F 10.0 °F 43% 30.16 in 10.0 mi NE 10.4 mph - N/A   Clear
7:52 AM 32.0 °F 23.6 °F 9.0 °F 38% 30.20 in 10.0 mi ENE 10.4 mph - N/A   Clear
8:52 AM 35.1 °F 26.4 °F 9.0 °F 34% 30.23 in 10.0 mi NE 12.7 mph - N/A   Clear
9:52 AM 37.9 °F 30.5 °F 9.0 °F 30% 30.26 in 10.0 mi ENE 11.5 mph 20.7 mph N/A   Partly Cloudy
10:52 AM 41.0 °F 35.2 °F 10.9 °F 29% 30.27 in 10.0 mi ENE 9.2 mph - N/A   Partly Cloudy
11:52 AM 43.0 °F 36.8 °F 10.9 °F 27% 30.27 in 10.0 mi NE 11.5 mph - N/A   Partly Cloudy
12:52 PM 46.0 °F 41.9 °F 12.0 °F 25% 30.25 in 10.0 mi NE 8.1 mph - N/A   Clear
1:52 PM 46.9 °F - 12.0 °F 24% 30.21 in 10.0 mi ENE 5.8 mph - N/A   Partly Cloudy
2:52 PM 48.9 °F - 12.9 °F 24% 30.20 in 10.0 mi East 8.1 mph - N/A   Scattered Clouds
3:52 PM 48.9 °F - 12.9 °F 24% 30.20 in 10.0 mi Variable 5.8 mph - N/A   Scattered Clouds
4:52 PM 48.0 °F - 12.9 °F 24% 30.20 in 10.0 mi East 11.5 mph - N/A   Mostly Cloudy
5:52 PM 46.9 °F - 14.0 °F 27% 30.21 in 9.0 mi ENE 9.2 mph - N/A   Mostly Cloudy
6:52 PM 45.0 °F 40.1 °F 14.0 °F 29% 30.22 in 6.0 mi ENE 9.2 mph - N/A   Haze
7:52 PM 43.0 °F 38.2 °F 15.1 °F 32% 30.23 in 7.0 mi ENE 8.1 mph - N/A   Mostly Cloudy
8:52 PM 43.0 °F 38.8 °F 15.1 °F 32% 30.24 in 10.0 mi ENE 6.9 mph - N/A   Scattered Clouds
9:52 PM 41.0 °F 37.1 °F 16.0 °F 36% 30.26 in 10.0 mi East 5.8 mph - N/A   Partly Cloudy
10:52 PM 41.0 °F 37.1 °F 16.0 °F 36% 30.27 in 10.0 mi ENE 5.8 mph - N/A   Scattered Clouds
11:52 PM 39.0 °F 34.0 °F 16.0 °F 39% 30.27 in 10.0 mi ENE 6.9 mph - N/A   Mostly Cloudy